FW3997 Weather Reports


Display with metric or nautical units.
time (UTC)temp
F
wind
direction
speed
MPH
gust
MPH
rain 1hr
in
rain 24hr
in
rain mn
in
humidity
%
barometer
mb
20260504035508 53 69 12.0 19.0 0.00 0.00 0.00 48 1013.3
20260504035008 53 74 14.0 21.0 0.00 0.00 0.00 46 1013.2
20260504034518 54 67 14.0 23.0 0.00 0.00 0.00 47 1013.2
20260504034048 54 73 15.0 23.0 0.00 0.00 0.00 47 1013.0
20260504033511 54 78 16.0 24.0 0.00 0.00 0.00 47 1012.7
20260504033028 54 75 14.0 25.0 0.00 0.00 0.00 48 1012.4
20260504032507 54 70 19.0 29.0 0.00 0.00 0.00 47 1012.3
20260504032010 55 77 20.0 32.0 0.00 0.00 0.00 46 1012.1
20260504031526 55 74 23.0 35.0 0.00 0.00 0.00 45 1012.0
20260504031013 56 78 26.0 35.0 0.00 0.00 0.00 44 1011.8
20260504030514 56 78 22.0 33.0 0.00 0.00 0.00 44 1011.6
20260504030015 56 88 22.0 34.0 0.00 0.00 0.00 43 1011.4
20260504025507 57 81 24.0 36.0 0.00 0.00 0.00 41 1011.3
20260504025037 58 80 27.0 36.0 0.00 0.00 0.00 41 1011.1
20260504024518 60 62 28.0 35.0 0.00 0.00 0.00 37 1010.9
20260504024008 61 40 11.0 17.0 0.00 0.00 0.00 35 1010.3
20260504023508 61 31 10.0 16.0 0.00 0.00 0.00 35 1010.3
20260504023024 61 26 11.0 17.0 0.00 0.00 0.00 34 1010.1
20260504022507 62 28 12.0 19.0 0.00 0.00 0.00 33 1010.0
20260504022010 62 26 13.0 21.0 0.00 0.00 0.00 33 1010.0
20260504021007 63 25 18.0 24.0 0.00 0.00 0.00 32 1009.8
20260504020509 63 26 16.0 27.0 0.00 0.00 0.00 32 1009.6
20260504020046 63 34 17.0 27.0 0.00 0.00 0.00 31 1009.6
20260504015511 64 17 16.0 27.0 0.00 0.00 0.00 31 1009.7
20260504015011 64 40 20.0 27.0 0.00 0.00 0.00 31 1009.5
20260504014514 64 43 21.0 28.0 0.00 0.00 0.00 32 1009.4
20260504014006 65 42 22.0 28.0 0.00 0.00 0.00 31 1009.2
20260504013510 65 34 19.0 26.0 0.00 0.00 0.00 30 1009.2
20260504013021 66 38 18.0 26.0 0.00 0.00 0.00 31 1009.0
20260504012508 66 42 20.0 26.0 0.00 0.00 0.00 31 1009.0
20260504012007 66 43 18.0 27.0 0.00 0.00 0.00 32 1009.0
20260504011523 67 34 19.0 27.0 0.00 0.00 0.00 31 1008.9
20260504011003 67 37 20.0 26.0 0.00 0.00 0.00 30 1008.9
20260504010504 68 42 19.0 27.0 0.00 0.00 0.00 31 1008.9
20260504010007 68 47 19.0 29.0 0.00 0.00 0.00 31 1008.8
20260504005504 68 74 24.0 29.0 0.00 0.00 0.00 32 1008.9
20260504005009 70 55 14.0 25.0 0.00 0.00 0.00 29 1008.8
20260504004506 69 5 11.0 15.0 0.00 0.00 0.00 27 1008.6
20260504004005 69 5 11.0 17.0 0.00 0.00 0.00 27 1008.7
20260504003536 70 5 11.0 17.0 0.00 0.00 0.00 27 1008.6
20260504003008 71 5 13.0 16.0 0.00 0.00 0.00 26 1008.6
20260504002505 71 360 8.0 13.0 0.00 0.00 0.00 25 1008.6
20260504002009 72 360 9.0 13.0 0.00 0.00 0.00 24 1008.6
20260504001508 72 360 9.0 16.0 0.00 0.00 0.00 25 1008.7
20260504001004 72 360 6.0 16.0 0.00 0.00 0.00 24 1008.7
20260504000503 72 360 10.0 17.0 0.00 0.00 0.00 25 1008.7
20260504000004 72 350 10.0 17.0 0.00 0.00 0.00 26 1008.7
20260503235503 72 329 10.0 13.0 0.00 0.00 0.00 24 1008.7
20260503235004 72 294 3.0 9.0 0.00 0.00 0.00 23 1008.6
20260503234508 70 294 3.0 7.0 0.00 0.00 0.00 28 1008.6
20260503234007 69 294 0.0 9.0 0.00 0.00 0.00 36 1008.7
20260503233503 68 294 2.0 11.0 0.00 0.00 0.00 33 1008.7
20260503233012 66 288 5.0 11.0 0.00 0.00 0.00 41 1008.5
20260503232506 66 306 7.0 9.0 0.00 0.00 0.00 46 1008.6
20260503232004 66 306 5.0 9.0 0.00 0.00 0.00 45 1008.7
20260503231514 66 306 8.0 9.0 0.00 0.00 0.00 49 1008.8
20260503231004 66 306 6.0 8.0 0.00 0.00 0.00 44 1008.8
20260503230505 67 306 7.0 9.0 0.00 0.00 0.00 45 1008.7
20260503230012 67 306 5.0 9.0 0.00 0.00 0.00 37 1008.7
20260503225508 68 306 5.0 9.0 0.00 0.00 0.00 36 1008.8
20260503225005 70 306 8.0 9.0 0.00 0.00 0.00 33 1008.9
20260503224509 71 306 2.0 5.0 0.00 0.00 0.00 30 1008.9
20260503224005 71 306 2.0 5.0 0.00 0.00 0.00 30 1008.9
20260503223502 71 306 2.0 5.0 0.00 0.00 0.00 28 1009.1
20260503223012 71 306 2.0 5.0 0.00 0.00 0.00 24 1009.2
20260503222509 70 306 3.0 5.0 0.00 0.00 0.00 28 1009.3
20260503222008 69 306 1.0 9.0 0.00 0.00 0.00 32 1009.4
20260503221513 69 306 2.0 9.0 0.00 0.00 0.00 36 1009.4
20260503221017 69 306 3.0 7.0 0.00 0.00 0.00 31 1009.4
20260503220507 69 306 2.0 7.0 0.00 0.00 0.00 28 1009.6
20260503220014 69 306 4.0 8.0 0.00 0.00 0.00 43 1009.6
20260503215505 69 306 4.0 10.0 0.00 0.00 0.00 35 1009.6
20260503215005 69 306 5.0 10.0 0.00 0.00 0.00 34 1009.7
20260503214521 69 306 3.0 9.0 0.00 0.00 0.00 27 1009.8
20260503214009 69 306 6.0 9.0 0.00 0.00 0.00 27 1009.9
20260503213506 71 306 6.0 9.0 0.00 0.00 0.00 35 1009.9
20260503213009 73 306 2.0 12.0 0.00 0.00 0.00 30 1010.0
20260503212504 73 306 6.0 12.0 0.00 0.00 0.00 21 1010.0
20260503212007 72 296 5.0 12.0 0.00 0.00 0.00 21 1010.2
20260503211511 72 296 5.0 12.0 0.00 0.00 0.00 20 1010.2
20260503211006 72 289 1.0 11.0 0.00 0.00 0.00 21 1010.3
20260503210507 71 289 7.0 10.0 0.00 0.00 0.00 24 1010.3
20260503210014 70 286 2.0 6.0 0.00 0.00 0.00 26 1010.3
20260503205507 70 286 4.0 6.0 0.00 0.00 0.00 29 1010.3
20260503205007 70 286 2.0 12.0 0.00 0.00 0.00 26 1010.3
20260503204519 71 286 5.0 12.0 0.00 0.00 0.00 21 1010.6
20260503204008 71 288 2.0 13.0 0.00 0.00 0.00 24 1010.6
20260503203506 71 288 7.0 14.0 0.00 0.00 0.00 22 1010.7
20260503203021 71 291 9.0 14.0 0.00 0.00 0.00 23 1010.8
20260503202506 71 280 7.0 17.0 0.00 0.00 0.00 22 1010.8
20260503202004 71 279 12.0 17.0 0.00 0.00 0.00 21 1010.8
20260503201509 70 278 9.0 14.0 0.00 0.00 0.00 23 1010.9
20260503201005 69 271 5.0 14.0 0.00 0.00 0.00 26 1011.0
20260503200503 71 273 5.0 14.0 0.00 0.00 0.00 30 1011.0
20260503200012 70 298 7.0 11.0 0.00 0.00 0.00 25 1011.1
20260503195508 70 294 4.0 11.0 0.00 0.00 0.00 27 1011.2
20260503195010 69 294 4.0 11.0 0.00 0.00 0.00 28 1011.3
20260503194521 69 294 7.0 12.0 0.00 0.00 0.00 26 1011.3
20260503194006 70 294 4.0 21.0 0.00 0.00 0.00 24 1011.4
20260503193507 70 294 11.0 21.0 0.00 0.00 0.00 22 1011.5
20260503193016 68 293 10.0 21.0 0.00 0.00 0.00 23 1011.5
20260503192507 66 258 9.0 15.0 0.00 0.00 0.00 35 1011.5
20260503192007 67 249 7.0 12.0 0.00 0.00 0.00 33 1011.6
20260503191530 67 249 5.0 12.0 0.00 0.00 0.00 28 1011.8
20260503191007 67 250 5.0 15.0 0.00 0.00 0.00 32 1012.0
20260503190504 67 250 11.0 15.0 0.00 0.00 0.00 30 1012.0
20260503190012 68 258 7.0 10.0 0.00 0.00 0.00 31 1012.1
20260503185006 68 258 3.0 13.0 0.00 0.00 0.00 24 1012.3
20260503184516 68 258 4.0 13.0 0.00 0.00 0.00 24 1012.4
20260503184005 67 254 4.0 9.0 0.00 0.00 0.00 31 1012.4
20260503183508 66 254 4.0 9.0 0.00 0.00 0.00 31 1012.3
20260503183021 66 254 6.0 9.0 0.00 0.00 0.00 29 1012.5
20260503182507 67 254 2.0 13.0 0.00 0.00 0.00 29 1012.7
20260503182011 66 254 10.0 13.0 0.00 0.00 0.00 27 1012.8
20260503181518 66 254 8.0 11.0 0.00 0.00 0.00 26 1013.0
20260503181008 67 254 2.0 8.0 0.00 0.00 0.00 24 1013.2
20260503180512 66 254 3.0 10.0 0.00 0.00 0.00 26 1013.2
20260503180031 66 254 3.0 15.0 0.00 0.00 0.00 25 1013.3
20260503175508 65 254 9.0 15.0 0.00 0.00 0.00 28 1013.3
20260503175006 63 236 9.0 14.0 0.00 0.00 0.00 33 1013.2
20260503174509 63 233 10.0 13.0 0.00 0.00 0.00 38 1013.1
20260503174009 63 236 10.0 16.0 0.00 0.00 0.00 35 1013.0
20260503173507 64 236 10.0 16.0 0.00 0.00 0.00 36 1013.0
20260503173017 65 235 11.0 15.0 0.00 0.00 0.00 34 1013.1
20260503172510 65 217 3.0 11.0 0.00 0.00 0.00 32 1013.0
20260503172010 65 217 5.0 11.0 0.00 0.00 0.00 29 1013.0
20260503171525 63 210 5.0 11.0 0.00 0.00 0.00 29 1013.1
20260503171007 63 198 4.0 9.0 0.00 0.00 0.00 34 1013.0
20260503170507 62 198 5.0 10.0 0.00 0.00 0.00 35 1013.2
20260503090508 42 182 2.0 4.0 0.00 0.01 0.00 83 1014.3
20260503081524 45 182 4.0 7.0 0.00 0.01 0.00 79 1014.4
20260503081008 46 182 5.0 7.0 0.00 0.01 0.00 79 1014.4
20260503080504 46 182 4.0 6.0 0.00 0.01 0.00 79 1014.3
20260503072504 45 182 4.0 6.0 0.00 0.01 0.00 70 1014.4
20260503072006 47 182 4.0 6.0 0.00 0.01 0.00 68 1014.4
20260503071510 49 182 3.0 7.0 0.00 0.01 0.00 72 1014.3
20260503071004 49 182 4.0 8.0 0.00 0.01 0.00 72 1014.2
20260503070507 49 182 5.0 9.0 0.00 0.01 0.00 72 1014.3
20260503055007 50 181 2.0 5.0 0.00 0.01 0.01 69 1014.7
20260503054518 51 190 2.0 6.0 0.00 0.01 0.01 68 1014.7
20260503054008 50 190 3.0 6.0 0.00 0.01 0.01 69 1014.7
20260503053508 50 191 3.0 5.0 0.00 0.01 0.01 70 1014.7
20260503053024 50 178 2.0 5.0 0.00 0.01 0.01 71 1014.8
20260503052509 50 196 3.0 6.0 0.00 0.01 0.01 70 1014.8
20260503052009 50 200 4.0 6.0 0.00 0.01 0.01 68 1014.7
20260503051522 51 208 4.0 6.0 0.00 0.01 0.01 71 1014.7
20260503051021 51 208 4.0 7.0 0.00 0.01 0.01 72 1014.9
20260503050507 51 208 4.0 8.0 0.00 0.01 0.01 71 1014.8
20260503050032 51 208 5.0 8.0 0.00 0.01 0.01 71 1014.8
20260503045521 51 209 7.0 8.0 0.00 0.01 0.01 70 1014.7
20260503045005 51 210 6.0 8.0 0.00 0.01 0.01 69 1014.6
20260503044515 51 211 4.0 7.0 0.00 0.01 0.01 73 1014.6
20260503044006 51 211 5.0 7.0 0.00 0.01 0.01 74 1014.6
20260503043506 51 211 5.0 7.0 0.00 0.01 0.01 70 1014.5
20260503043034 51 211 4.0 6.0 0.00 0.01 0.01 71 1014.7
20260503042513 52 211 4.0 6.0 0.00 0.01 0.01 72 1014.7
20260503042010 52 211 4.0 6.0 0.00 0.01 0.01 73 1014.7
20260503041521 52 211 4.0 6.0 0.00 0.01 0.01 72 1014.7
20260503041011 52 211 4.0 6.0 0.00 0.01 0.01 73 1014.8
20260503040510 52 211 4.0 6.0 0.00 0.01 0.01 72 1014.7
20260503040027 52 211 4.0 5.0 0.00 0.01 0.01 71 1014.7